Fort Stockton, TX

5:29 AM CDT on October 18, 2017 (GMT -0500)
Fort Stockton-Pecos County

Weather History for KFST - March, 2014

Change the Weather History Date:

Thursday, March 20, 2014

  Actual Average Record
Temperature  
Mean Temperature 58 °F -  
Max Temperature 82 °F 69 °F 95 °F (2017)
Min Temperature 37 °F 45 °F 32 °F (1998)
Degree Days  
Heating Degree Days 6    
Growing Degree Days 8 (Base 50)    
Moisture  
Dew Point 19 °F    
Average Humidity 27    
Maximum Humidity 49    
Minimum Humidity 7    
Precipitation  
Precipitation 0.00 in - - ()
Sea Level Pressure  
Sea Level Pressure 30.03 in    
Wind  
Wind Speed 8 mph (SSE)    
Max Wind Speed 23 mph    
Max Gust Speed 32 mph    
Visibility 10 miles    
Events      
Averages and records for this station are not official NWS values.
T = Trace of Precipitation, MM = Missing Value Source: NWS Daily Summary

Daily Weather History Graph

Daily Weather History Graph

Search for Another Location

Airport or City:

Trip Planner

Search our weather history database for the weather conditions in past years. The results will help you decide how hot, cold, wet, or windy it might be!

Date:

Astronomy

Mar. 20, 2014 Rise Set
Actual Time 7:55 AM CDT 8:03 PM CDT
Civil Twilight 7:31 AM CDT 8:27 PM CDT
Nautical Twilight 7:03 AM CDT 8:55 PM CDT
Astronomical Twilight 6:34 AM CDT 9:23 PM CDT
Moon No Moon Rise 10:18 AM CDT (3/20)
Length of Visible Light 12h 56m
Length of Day
12h 07m
Waning Gibbous, 84% of the Moon is Illuminated
Mar 20
Waning Gibbous
Mar 23
Last Quarter
Mar 30
New
Apr 7
First Quarter
Apr 15
Full

Hourly Weather History & Observations

Time (CDT) Temp. Windchill Dew Point Humidity Pressure Visibility Wind Dir Wind Speed Gust Speed Precip Events Conditions
12:53 AM 45.0 °F 40.1 °F 19.0 °F 36% 30.17 in 10.0 mi South 9.2 mph - N/A   Overcast
1:29 AM 44.1 °F 39.5 °F 19.9 °F 38% 30.20 in 10.0 mi South 8.1 mph - N/A   Scattered Clouds
1:53 AM 45.0 °F 40.1 °F 19.0 °F 36% 30.14 in 10.0 mi South 9.2 mph - N/A   Clear
2:53 AM 42.1 °F 37.7 °F 21.0 °F 43% 30.15 in 10.0 mi South 6.9 mph - N/A   Clear
3:53 AM 41.0 °F 37.1 °F 21.0 °F 45% 30.12 in 10.0 mi South 5.8 mph - N/A   Clear
4:53 AM 44.1 °F 39.5 °F 21.9 °F 42% 30.12 in 10.0 mi South 8.1 mph - N/A   Clear
5:53 AM 37.9 °F 34.4 °F 19.9 °F 48% 30.12 in 10.0 mi South 4.6 mph - N/A   Clear
6:53 AM 39.0 °F 33.4 °F 21.0 °F 49% 30.12 in 10.0 mi South 8.1 mph - N/A   Clear
7:53 AM 42.1 °F 37.7 °F 21.9 °F 45% 30.13 in 10.0 mi South 6.9 mph - N/A   Clear
8:53 AM 45.0 °F 43.5 °F 21.9 °F 40% 30.13 in 10.0 mi South 3.5 mph - N/A   Clear
9:53 AM 54.0 °F - 23.0 °F 30% 30.12 in 10.0 mi SSE 3.5 mph - N/A   Clear
10:53 AM 59.0 °F - 21.9 °F 24% 30.13 in 10.0 mi ESE 4.6 mph - N/A   Clear
11:53 AM 64.9 °F - 21.9 °F 19% 30.10 in 10.0 mi Calm Calm - N/A   Clear
12:53 PM 71.1 °F - 21.9 °F 16% 30.06 in 10.0 mi Variable 3.5 mph - N/A   Clear
1:53 PM 77.0 °F - 12.0 °F 8% 30.01 in 10.0 mi South 12.7 mph 16.1 mph N/A   Clear
2:53 PM 80.1 °F - 12.0 °F 8% 29.97 in 10.0 mi Variable 5.8 mph - N/A   Clear
3:53 PM 80.1 °F - 10.9 °F 7% 29.93 in 10.0 mi NNE 4.6 mph - N/A   Clear
4:53 PM 80.1 °F - 10.0 °F 7% 29.90 in 10.0 mi North - - N/A   Clear
5:53 PM 80.1 °F - 10.9 °F 7% 29.88 in 10.0 mi ESE 5.8 mph - N/A   Clear
6:53 PM 75.9 °F - 12.9 °F 9% 29.87 in 10.0 mi SSE 19.6 mph 25.3 mph N/A   Clear
7:53 PM 71.1 °F - 12.9 °F 11% 29.88 in 10.0 mi SSE 17.3 mph 24.2 mph N/A   Clear
8:53 PM 68.0 °F - 19.9 °F 16% 29.88 in 10.0 mi SSE 16.1 mph - N/A   Clear
9:53 PM 66.9 °F - 26.1 °F 21% 29.88 in 10.0 mi South 23.0 mph 32.2 mph N/A   Clear
10:53 PM 64.9 °F - 28.9 °F 26% 29.88 in 10.0 mi SSE 17.3 mph - N/A   Clear
11:53 PM 62.1 °F - 32.0 °F 32% 29.86 in 10.0 mi SSE 11.5 mph - N/A   Clear